Weather History for KVVV - January, 2014

Change the Weather History Date:

Monday, January 6, 2014

  Actual Average (KAQP) Record (KAQP)
Temperature  
Mean Temperature -14 °F -  
Max Temperature -9 °F 19 °F 46 °F (2012)
Min Temperature -20 °F 4 °F -20 °F (2014)
Degree Days  
Heating Degree Days 80    
Moisture  
Dew Point -25 °F    
Average Humidity 62    
Maximum Humidity 71    
Minimum Humidity 53    
Precipitation  
Precipitation 0.00 in - - ()
Sea Level Pressure  
Sea Level Pressure 30.30 in    
Wind  
Wind Speed 10 mph (WNW)    
Max Wind Speed 18 mph    
Max Gust Speed 25 mph    
Visibility 10 miles    
Events      
Averages and records for this station are not official NWS values.
T = Trace of Precipitation, MM = Missing Value Source: NWS Daily Summary

Daily Weather History Graph

Daily Weather History Graph

Search for Another Location

Airport or City:

Trip Planner

Search our weather history database for the weather conditions in past years. The results will help you decide how hot, cold, wet, or windy it might be!

Date:

Astronomy

Jan. 06, 2014 Rise Set
Actual Time 8:04 AM CST 4:58 PM CST
Civil Twilight 7:31 AM CST 5:32 PM CST
Nautical Twilight 6:54 AM CST 6:09 PM CST
Astronomical Twilight 6:18 AM CST 6:45 PM CST
Moon 11:02 AM CST (1/6) 11:53 PM CST (1/6)
Length of Visible Light 10h 01m
Length of Day
8h 54m
Waxing Crescent, 35% of the Moon is Illuminated
Jan 6
Waxing Crescent
Jan 7
First Quarter
Jan 15
Full
Jan 23
Last Quarter
Jan 30
New

Hourly Weather History & Observations

Time (CST) Temp. Windchill Dew Point Humidity Pressure Visibility Wind Dir Wind Speed Gust Speed Precip Events Conditions
12:14 AM -20.2 °F -38.8 °F -27.4 °F 69% 30.39 in 7.0 mi NW 8.1 mph - N/A   Clear
12:33 AM -20.2 °F -37.3 °F -27.4 °F 69% 30.38 in 3.0 mi NW 6.9 mph - N/A   Haze
12:54 AM -20.2 °F -43.4 °F -27.4 °F 69% 30.38 in 7.0 mi NW 12.7 mph 19.6 mph N/A   Mostly Cloudy
1:14 AM -20.2 °F -41.3 °F -29.2 °F 63% 30.38 in 10.0 mi NW 10.4 mph 21.9 mph N/A   Scattered Clouds
1:33 AM -20.2 °F -47.5 °F -29.2 °F 63% 30.37 in 7.0 mi NW 18.4 mph 21.9 mph N/A   Clear
1:54 AM -20.2 °F -30.9 °F -29.2 °F 63% 30.37 in 10.0 mi NW 3.5 mph 17.3 mph N/A   Clear
2:14 AM -20.2 °F -46.0 °F -29.2 °F 63% 30.37 in 10.0 mi NW 16.1 mph 19.6 mph N/A   Clear
2:34 AM -20.2 °F -37.3 °F -29.2 °F 63% 30.38 in 10.0 mi NW 6.9 mph 25.3 mph N/A   Clear
2:54 AM -20.2 °F -45.2 °F -29.2 °F 63% 30.38 in 10.0 mi NW 15.0 mph 21.9 mph N/A   Clear
3:13 AM -20.2 °F -43.4 °F -29.2 °F 63% 30.38 in 10.0 mi NW 12.7 mph 19.6 mph N/A   Clear
3:34 AM -20.2 °F -38.8 °F -29.2 °F 63% 30.38 in 10.0 mi NW 8.1 mph 21.9 mph N/A   Clear
3:54 AM -20.2 °F -43.4 °F -29.2 °F 63% 30.38 in 10.0 mi NW 12.7 mph 20.7 mph N/A   Clear
4:13 AM -20.2 °F -45.2 °F -29.2 °F 63% 30.37 in 10.0 mi NW 15.0 mph 20.7 mph N/A   Clear
4:34 AM -20.2 °F -30.9 °F -31.0 °F 58% 30.37 in 10.0 mi NW 3.5 mph 17.3 mph N/A   Clear
4:54 AM -20.2 °F -41.3 °F -31.0 °F 58% 30.37 in 10.0 mi NW 10.4 mph 17.3 mph N/A   Clear
5:13 AM -20.2 °F -45.2 °F -31.0 °F 58% 30.36 in 10.0 mi NW 15.0 mph 20.7 mph N/A   Clear
5:34 AM -20.2 °F -44.4 °F -31.0 °F 58% 30.36 in 10.0 mi NW 13.8 mph 23.0 mph N/A   Clear
5:54 AM -20.2 °F -45.2 °F -31.0 °F 58% 30.36 in 10.0 mi NW 15.0 mph 21.9 mph N/A   Clear
6:13 AM -20.2 °F -41.3 °F -31.0 °F 58% 30.36 in 10.0 mi NW 10.4 mph 17.3 mph N/A   Clear
6:34 AM -20.2 °F -38.8 °F -31.0 °F 58% 30.37 in 10.0 mi NW 8.1 mph 17.3 mph N/A   Clear
6:54 AM -20.2 °F - -31.0 °F 58% 30.36 in 10.0 mi Calm Calm - N/A   Clear
7:13 AM -20.2 °F -33.5 °F -31.0 °F 58% 30.36 in 10.0 mi NW 4.6 mph - N/A   Clear
7:34 AM -20.2 °F - -31.0 °F 58% 30.36 in 10.0 mi Calm Calm - N/A   Clear
7:53 AM -20.2 °F - -31.0 °F 58% 30.35 in 10.0 mi Calm Calm - N/A   Clear
8:14 AM -20.2 °F - -31.0 °F 58% 30.36 in 10.0 mi Calm Calm - N/A   Clear
8:33 AM -20.2 °F -43.4 °F -31.0 °F 58% 30.36 in 10.0 mi NW 12.7 mph 17.3 mph N/A   Clear
8:54 AM -20.2 °F - -31.0 °F 58% 30.36 in 10.0 mi Calm Calm - N/A   Clear
9:13 AM -20.2 °F -45.2 °F -29.2 °F 63% 30.36 in 10.0 mi NW 15.0 mph 19.6 mph N/A   Clear
9:34 AM -18.4 °F -39.1 °F -29.2 °F 58% 30.37 in 10.0 mi NW 10.4 mph 20.7 mph N/A   Clear
9:54 AM -18.4 °F -41.2 °F -29.2 °F 58% 30.36 in 10.0 mi WNW 12.7 mph 21.9 mph N/A   Clear
10:13 AM -18.4 °F -45.2 °F -29.2 °F 58% 30.35 in 10.0 mi NW 18.4 mph - N/A   Clear
10:34 AM -16.6 °F -37.9 °F -29.2 °F 53% 30.35 in 10.0 mi WNW 11.5 mph 19.6 mph N/A   Clear
10:54 AM -16.6 °F -41.4 °F -27.4 °F 58% 30.34 in 10.0 mi NW 16.1 mph 20.7 mph N/A   Clear
11:13 AM -16.6 °F -36.8 °F -27.4 °F 58% 30.33 in 10.0 mi WNW 10.4 mph 20.7 mph N/A   Clear
11:34 AM -14.8 °F -35.6 °F -27.4 °F 53% 30.32 in 10.0 mi NW 11.5 mph 17.3 mph N/A   Clear
11:54 AM -14.8 °F -35.6 °F -25.6 °F 58% 30.31 in 10.0 mi WNW 11.5 mph 18.4 mph N/A   Clear
12:13 PM -14.8 °F -39.1 °F -25.6 °F 58% 30.30 in 10.0 mi WNW 16.1 mph - N/A   Clear
12:34 PM -13.0 °F -34.3 °F -23.8 °F 59% 30.29 in 10.0 mi WNW 12.7 mph 18.4 mph N/A   Clear
12:54 PM -11.2 °F -32.9 °F -23.8 °F 54% 30.29 in 10.0 mi NW 13.8 mph 20.7 mph N/A   Clear
1:14 PM -11.2 °F -35.2 °F -23.8 °F 54% 30.28 in 10.0 mi NW 17.3 mph 24.2 mph N/A   Clear
1:33 PM -11.2 °F -32.1 °F -23.8 °F 54% 30.28 in 10.0 mi WNW 12.7 mph - N/A   Clear
1:54 PM -11.2 °F -33.7 °F -23.8 °F 54% 30.27 in 10.0 mi WNW 15.0 mph 19.6 mph N/A   Clear
2:13 PM -11.2 °F -34.4 °F -23.8 °F 54% 30.27 in 10.0 mi West 16.1 mph 20.7 mph N/A   Clear
2:34 PM -11.2 °F -33.7 °F -23.8 °F 54% 30.27 in 10.0 mi WNW 15.0 mph - N/A   Clear
2:53 PM -11.2 °F -33.7 °F -22.0 °F 59% 30.26 in 10.0 mi WNW 15.0 mph 19.6 mph N/A   Clear
3:14 PM -9.4 °F -30.6 °F -20.2 °F 59% 30.26 in 10.0 mi WNW 13.8 mph 19.6 mph N/A   Clear
3:34 PM -9.4 °F -29.8 °F -20.2 °F 59% 30.26 in 10.0 mi WNW 12.7 mph 18.4 mph N/A   Clear
3:53 PM -9.4 °F -32.1 °F -20.2 °F 59% 30.25 in 10.0 mi WNW 16.1 mph - N/A   Clear
4:13 PM -9.4 °F -28.9 °F -20.2 °F 59% 30.25 in 10.0 mi West 11.5 mph 19.6 mph N/A   Clear
4:34 PM -9.4 °F -29.8 °F -20.2 °F 59% 30.25 in 10.0 mi West 12.7 mph - N/A   Clear
4:53 PM -11.2 °F -30.1 °F -20.2 °F 64% 30.25 in 10.0 mi WNW 10.4 mph 16.1 mph N/A   Clear
5:14 PM -11.2 °F -30.1 °F -20.2 °F 64% 30.24 in 10.0 mi WNW 10.4 mph - N/A   Clear
5:33 PM -11.2 °F -33.7 °F -20.2 °F 64% 30.23 in 10.0 mi WNW 15.0 mph 18.4 mph N/A   Clear
5:53 PM -11.2 °F -31.1 °F -18.4 °F 70% 30.23 in 10.0 mi West 11.5 mph - N/A   Clear
6:14 PM -11.2 °F -29.0 °F -18.4 °F 70% 30.23 in 10.0 mi West 9.2 mph - N/A   Clear
6:33 PM -11.2 °F -29.0 °F -18.4 °F 70% 30.22 in 10.0 mi West 9.2 mph - N/A   Clear
6:54 PM -11.2 °F -29.0 °F -18.4 °F 70% 30.22 in 7.0 mi WNW 9.2 mph - N/A   Clear
7:14 PM -11.2 °F -26.4 °F -18.4 °F 70% 30.22 in 10.0 mi West 6.9 mph - N/A   Clear
7:33 PM -11.2 °F -27.8 °F -18.4 °F 70% 30.22 in 10.0 mi West 8.1 mph - N/A   Clear
7:54 PM -11.2 °F -26.4 °F -20.2 °F 64% 30.21 in 10.0 mi West 6.9 mph - N/A   Clear
8:13 PM -11.2 °F - -20.2 °F 64% 30.21 in 10.0 mi Calm Calm - N/A   Clear
8:34 PM -11.2 °F - -20.2 °F 64% 30.20 in 10.0 mi Calm Calm - N/A   Clear
8:54 PM -11.2 °F -26.4 °F -18.4 °F 70% 30.20 in 10.0 mi West 6.9 mph - N/A   Clear
9:13 PM -9.4 °F -25.6 °F -18.4 °F 65% 30.20 in 10.0 mi West 8.1 mph - N/A   Clear
9:33 PM -11.2 °F - -20.2 °F 64% 30.19 in 10.0 mi Calm Calm - N/A   Clear
9:54 PM -11.2 °F - -20.2 °F 64% 30.18 in 10.0 mi Calm Calm - N/A   Clear
10:14 PM -11.2 °F - -18.4 °F 70% 30.17 in 10.0 mi Calm Calm - N/A   Clear
10:33 PM -11.2 °F - -18.4 °F 70% 30.17 in 10.0 mi Calm Calm - N/A   Clear
10:54 PM -11.2 °F -27.8 °F -18.4 °F 70% 30.17 in 10.0 mi West 8.1 mph - N/A   Clear
11:13 PM -9.4 °F -24.3 °F -18.4 °F 65% 30.16 in 10.0 mi WSW 6.9 mph - N/A   Clear
11:34 PM -9.4 °F -24.3 °F -16.6 °F 71% 30.15 in 10.0 mi West 6.9 mph - N/A   Clear
11:54 PM -9.4 °F -20.9 °F -18.4 °F 65% 30.14 in 10.0 mi West 4.6 mph - N/A   Clear